N75RA KOWB-KMDW

Flight info

Callsign N75RA
Flight time 0h 48m
Altitude 32000
Route ENDEE ENDEE6
Aircraft C700/M-SBDGHM1RWXY/LB2

Departure

Time 2026-05-07 04:19
Airport Owensboro Daviess County Airport (KOWB)

Arrival

Time 2026-05-07 05:07
Airport Chicago Midway International Airport (KMDW)
Time Latitude Longitude Altitude Speed Heading
2026-05-07 04:11 37.73813 -87.16419 406 ft 0 kts 269°
2026-05-07 04:13 37.73812 -87.16436 404 ft 3 kts 258°
2026-05-07 04:14 37.73810 -87.16440 405 ft 0 kts 253°
2026-05-07 04:15 37.73793 -87.16444 404 ft 8 kts 187°
2026-05-07 04:15 37.73780 -87.16510 406 ft 16 kts 263°
2026-05-07 04:15 37.73742 -87.16538 406 ft 5 kts 178°
2026-05-07 04:16 37.73668 -87.16536 405 ft 17 kts 178°
2026-05-07 04:16 37.73522 -87.16528 405 ft 19 kts 177°
2026-05-07 04:16 37.73377 -87.16521 404 ft 20 kts 177°
2026-05-07 04:16 37.73226 -87.16514 403 ft 23 kts 178°
2026-05-07 04:17 37.73086 -87.16506 403 ft 20 kts 178°
2026-05-07 04:17 37.72985 -87.16501 402 ft 15 kts 176°
2026-05-07 04:17 37.72869 -87.16495 402 ft 18 kts 178°
2026-05-07 04:17 37.72744 -87.16494 401 ft 15 kts 194°
2026-05-07 04:18 37.72710 -87.16603 401 ft 14 kts 271°
2026-05-07 04:18 37.72766 -87.16677 401 ft 13 kts 355°
2026-05-07 04:18 37.73076 -87.16689 404 ft 91 kts 357°
2026-05-07 04:18 37.73983 -87.16730 511 ft 158 kts 358°
2026-05-07 04:19 37.75121 -87.16798 1340 ft 168 kts 357°
2026-05-07 04:19 37.76354 -87.16913 2034 ft 179 kts 354°
2026-05-07 04:19 37.77685 -87.17082 2791 ft 207 kts 355°
2026-05-07 04:19 37.79215 -87.17261 3527 ft 235 kts 354°
2026-05-07 04:20 37.80932 -87.17446 4372 ft 255 kts 354°
2026-05-07 04:20 37.82722 -87.17608 5595 ft 261 kts 354°
2026-05-07 04:20 37.84556 -87.17729 6729 ft 267 kts 354°
2026-05-07 04:21 37.88244 -87.18528 8809 ft 269 kts 329°
2026-05-07 04:21 37.89982 -87.19452 9979 ft 274 kts 331°
2026-05-07 04:21 37.91867 -87.20212 10686 ft 299 kts 336°
2026-05-07 04:21 37.93941 -87.20873 11536 ft 310 kts 337°
2026-05-07 04:22 37.96026 -87.21575 12656 ft 312 kts 334°
2026-05-07 04:22 37.98121 -87.22361 13696 ft 316 kts 333°
2026-05-07 04:22 38.00254 -87.23149 14618 ft 322 kts 333°
2026-05-07 04:22 38.02436 -87.23926 15470 ft 329 kts 333°
2026-05-07 04:23 38.04658 -87.24721 16304 ft 334 kts 333°
2026-05-07 04:23 38.06915 -87.25537 17132 ft 340 kts 332°
2026-05-07 04:23 38.08427 -87.26086 17685 ft 344 kts 332°
2026-05-07 04:23 38.10747 -87.26925 18458 ft 350 kts 332°
2026-05-07 04:24 38.13098 -87.27772 19166 ft 353 kts 332°
2026-05-07 04:24 38.15475 -87.28630 19896 ft 356 kts 331°
2026-05-07 04:24 38.17871 -87.29499 20565 ft 360 kts 331°
2026-05-07 04:24 38.20293 -87.30378 21217 ft 364 kts 331°
2026-05-07 04:25 38.22739 -87.31265 21853 ft 367 kts 330°
2026-05-07 04:25 38.25209 -87.32159 22472 ft 371 kts 330°
2026-05-07 04:25 38.27703 -87.33065 23079 ft 375 kts 330°
2026-05-07 04:25 38.30224 -87.33983 23667 ft 379 kts 330°
2026-05-07 04:26 38.32771 -87.34907 24203 ft 382 kts 330°
2026-05-07 04:26 38.35331 -87.35835 24766 ft 383 kts 330°
2026-05-07 04:26 38.37895 -87.36769 25319 ft 385 kts 329°
2026-05-07 04:26 38.40483 -87.37715 25867 ft 387 kts 329°
2026-05-07 04:27 38.43075 -87.38659 26396 ft 389 kts 329°
2026-05-07 04:27 38.45681 -87.39610 26919 ft 390 kts 329°
2026-05-07 04:27 38.48298 -87.40565 27419 ft 392 kts 329°
2026-05-07 04:27 38.50921 -87.41524 27913 ft 393 kts 329°
2026-05-07 04:28 38.53553 -87.42487 28408 ft 395 kts 328°
2026-05-07 04:28 38.56205 -87.43458 28896 ft 396 kts 328°
2026-05-07 04:28 38.58863 -87.44431 29374 ft 398 kts 328°
2026-05-07 04:28 38.61531 -87.45409 29852 ft 400 kts 328°
2026-05-07 04:29 38.64211 -87.46393 30300 ft 402 kts 328°
2026-05-07 04:29 38.66903 -87.47382 30671 ft 404 kts 327°
2026-05-07 04:29 38.69610 -87.48377 31026 ft 406 kts 327°
2026-05-07 04:29 38.72328 -87.49377 31371 ft 408 kts 327°
2026-05-07 04:30 38.75061 -87.50381 31695 ft 409 kts 327°
2026-05-07 04:30 38.77806 -87.51392 32009 ft 411 kts 327°
2026-05-07 04:30 38.83405 -87.53473 32094 ft 428 kts 328°
2026-05-07 04:31 38.89208 -87.55605 32099 ft 445 kts 328°
2026-05-07 04:31 38.95247 -87.57844 32096 ft 459 kts 329°
2026-05-07 04:32 39.01505 -87.60160 32093 ft 471 kts 329°
2026-05-07 04:32 39.07802 -87.62488 32093 ft 465 kts 329°
2026-05-07 04:33 39.10801 -87.63554 32092 ft 430 kts 328°
2026-05-07 04:33 39.13562 -87.64571 32083 ft 398 kts 326°
2026-05-07 04:33 39.16130 -87.65554 32070 ft 371 kts 325°
2026-05-07 04:33 39.18525 -87.66459 32070 ft 348 kts 324°
2026-05-07 04:34 39.20783 -87.67294 32069 ft 327 kts 323°
2026-05-07 04:34 39.22899 -87.68080 32070 ft 307 kts 322°
2026-05-07 04:34 39.24886 -87.68826 32071 ft 288 kts 321°
2026-05-07 04:34 39.26754 -87.69527 32069 ft 272 kts 320°
2026-05-07 04:35 39.28518 -87.70187 32068 ft 256 kts 319°
2026-05-07 04:35 39.30215 -87.70845 32073 ft 261 kts 318°
2026-05-07 04:35 39.32036 -87.71600 32080 ft 291 kts 320°
2026-05-07 04:35 39.34079 -87.72371 32096 ft 321 kts 323°
2026-05-07 04:36 39.36317 -87.73176 32099 ft 347 kts 325°
2026-05-07 04:36 39.38713 -87.74060 32104 ft 370 kts 326°
2026-05-07 04:36 39.41259 -87.75024 32109 ft 392 kts 326°
2026-05-07 04:36 39.43954 -87.76040 32110 ft 414 kts 327°
2026-05-07 04:37 39.46795 -87.77099 32113 ft 435 kts 328°
2026-05-07 04:37 39.49768 -87.78211 32115 ft 454 kts 329°
2026-05-07 04:37 39.52845 -87.79366 32115 ft 466 kts 329°
2026-05-07 04:37 39.55969 -87.80528 32112 ft 467 kts 329°
2026-05-07 04:38 39.62179 -87.82867 32117 ft 463 kts 329°
2026-05-07 04:38 39.68371 -87.85218 32108 ft 465 kts 329°
2026-05-07 04:39 39.74607 -87.87576 32107 ft 467 kts 329°
2026-05-07 04:39 39.80831 -87.89936 32108 ft 464 kts 329°
2026-05-07 04:40 39.87025 -87.92296 32100 ft 464 kts 329°
2026-05-07 04:40 39.93251 -87.94670 32102 ft 468 kts 329°
2026-05-07 04:41 39.99497 -87.97048 32104 ft 467 kts 329°
2026-05-07 04:41 40.05708 -87.99426 31944 ft 464 kts 329°
2026-05-07 04:42 40.08775 -88.00594 31355 ft 454 kts 330°
2026-05-07 04:42 40.11728 -88.01716 30769 ft 444 kts 330°
2026-05-07 04:42 40.14683 -88.02863 30185 ft 445 kts 330°
2026-05-07 04:42 40.17671 -88.04037 29552 ft 450 kts 330°
2026-05-07 04:43 40.20667 -88.05171 28958 ft 445 kts 332°
2026-05-07 04:43 40.23625 -88.06286 28374 ft 440 kts 331°
2026-05-07 04:43 40.26540 -88.07418 27797 ft 435 kts 331°
2026-05-07 04:43 40.29436 -88.08551 27225 ft 434 kts 332°
2026-05-07 04:44 40.32330 -88.09666 26655 ft 434 kts 332°
2026-05-07 04:44 40.35226 -88.10777 26085 ft 433 kts 333°
2026-05-07 04:44 40.38114 -88.11893 25515 ft 431 kts 333°
2026-05-07 04:44 40.40982 -88.13003 24954 ft 429 kts 333°
2026-05-07 04:45 40.43835 -88.14109 24400 ft 427 kts 333°
2026-05-07 04:45 40.46682 -88.15213 23846 ft 426 kts 333°
2026-05-07 04:45 40.49518 -88.16313 23252 ft 425 kts 334°
2026-05-07 04:45 40.52343 -88.17408 22693 ft 421 kts 334°
2026-05-07 04:46 40.55140 -88.18494 22148 ft 418 kts 334°
2026-05-07 04:46 40.57923 -88.19578 21603 ft 415 kts 334°
2026-05-07 04:46 40.60683 -88.20652 21062 ft 411 kts 334°
2026-05-07 04:46 40.63409 -88.21711 20526 ft 406 kts 334°
2026-05-07 04:47 40.66102 -88.22763 20000 ft 402 kts 335°
2026-05-07 04:47 40.68772 -88.23806 19470 ft 398 kts 335°
2026-05-07 04:47 40.71408 -88.24834 18957 ft 392 kts 335°
2026-05-07 04:47 40.74007 -88.25849 18451 ft 387 kts 335°
2026-05-07 04:48 40.76566 -88.26851 17915 ft 380 kts 335°
2026-05-07 04:48 40.79083 -88.27837 17421 ft 375 kts 335°
2026-05-07 04:48 40.81580 -88.28818 16935 ft 374 kts 336°
2026-05-07 04:48 40.84067 -88.29795 16448 ft 372 kts 336°
2026-05-07 04:49 40.86545 -88.30766 15960 ft 371 kts 336°
2026-05-07 04:49 40.89005 -88.31732 15478 ft 367 kts 337°
2026-05-07 04:49 40.91444 -88.32689 15001 ft 364 kts 337°
2026-05-07 04:49 40.93864 -88.33643 14532 ft 362 kts 338°
2026-05-07 04:50 40.96269 -88.34590 14062 ft 360 kts 338°
2026-05-07 04:50 40.98633 -88.35521 13572 ft 358 kts 338°
2026-05-07 04:50 41.01009 -88.36456 13098 ft 353 kts 339°
2026-05-07 04:50 41.03297 -88.37353 12660 ft 333 kts 339°
2026-05-07 04:51 41.05461 -88.38204 12247 ft 316 kts 338°
2026-05-07 04:51 41.07518 -88.39021 11852 ft 302 kts 338°
2026-05-07 04:51 41.09488 -88.39802 11478 ft 290 kts 338°
2026-05-07 04:51 41.11384 -88.40552 11105 ft 280 kts 338°
2026-05-07 04:52 41.13238 -88.41289 10747 ft 277 kts 338°
2026-05-07 04:52 41.15083 -88.42022 10376 ft 277 kts 338°
2026-05-07 04:52 41.16933 -88.42755 10017 ft 278 kts 338°
2026-05-07 04:52 41.18780 -88.43487 9629 ft 277 kts 339°
2026-05-07 04:53 41.20622 -88.44217 9261 ft 274 kts 339°
2026-05-07 04:53 41.22441 -88.44940 8904 ft 272 kts 339°
2026-05-07 04:53 41.24245 -88.45656 8548 ft 269 kts 340°
2026-05-07 04:53 41.26029 -88.46366 8191 ft 267 kts 340°
2026-05-07 04:54 41.27801 -88.47070 7843 ft 265 kts 340°
2026-05-07 04:54 41.29560 -88.47771 7497 ft 263 kts 341°
2026-05-07 04:54 41.31309 -88.48466 7152 ft 262 kts 341°
2026-05-07 04:54 41.33051 -88.49150 6803 ft 260 kts 344°
2026-05-07 04:55 41.34846 -88.49411 6446 ft 261 kts 359°
2026-05-07 04:55 41.36633 -88.49093 6111 ft 260 kts 13°
2026-05-07 04:55 41.38291 -88.48222 6081 ft 255 kts 25°
2026-05-07 04:55 41.39765 -88.46844 6076 ft 264 kts 39°
2026-05-07 04:56 41.41002 -88.44998 6079 ft 269 kts 49°
2026-05-07 04:56 41.42106 -88.42992 6069 ft 270 kts 56°
2026-05-07 04:56 41.42929 -88.40732 6067 ft 272 kts 64°
2026-05-07 04:56 41.43678 -88.38413 6011 ft 270 kts 63°
2026-05-07 04:57 41.44490 -88.36208 6011 ft 268 kts 60°
2026-05-07 04:57 41.45372 -88.33925 6018 ft 285 kts 60°
2026-05-07 04:57 41.46270 -88.31567 6012 ft 290 kts 61°
2026-05-07 04:57 41.47170 -88.29161 6018 ft 290 kts 61°
2026-05-07 04:58 41.48076 -88.26755 6017 ft 290 kts 61°
2026-05-07 04:58 41.48984 -88.24348 6019 ft 290 kts 61°
2026-05-07 04:58 41.49893 -88.21941 6016 ft 290 kts 61°
2026-05-07 04:58 41.50797 -88.19534 6013 ft 290 kts 61°
2026-05-07 04:59 41.51700 -88.17134 6010 ft 289 kts 61°
2026-05-07 04:59 41.52602 -88.14734 6004 ft 289 kts 61°
2026-05-07 04:59 41.53501 -88.12341 6015 ft 288 kts 61°
2026-05-07 04:59 41.54398 -88.09948 6016 ft 288 kts 61°
2026-05-07 05:00 41.55294 -88.07556 6008 ft 288 kts 61°
2026-05-07 05:00 41.56191 -88.05161 6015 ft 289 kts 62°
2026-05-07 05:00 41.57089 -88.02762 6015 ft 289 kts 61°
2026-05-07 05:00 41.57872 -88.00666 6022 ft 297 kts 62°
2026-05-07 05:01 41.58788 -87.98218 6017 ft 289 kts 62°
2026-05-07 05:01 41.59675 -87.95838 6011 ft 286 kts 62°
2026-05-07 05:01 41.60555 -87.93479 6013 ft 277 kts 62°
2026-05-07 05:01 41.61396 -87.91215 5854 ft 270 kts 61°
2026-05-07 05:02 41.62234 -87.88974 5528 ft 268 kts 61°
2026-05-07 05:02 41.63055 -87.86764 5184 ft 264 kts 61°
2026-05-07 05:02 41.63867 -87.84582 4827 ft 261 kts 61°
2026-05-07 05:02 41.64656 -87.82453 4478 ft 247 kts 61°
2026-05-07 05:03 41.65393 -87.80462 4161 ft 232 kts 60°
2026-05-07 05:03 41.66093 -87.78581 3854 ft 220 kts 60°
2026-05-07 05:03 41.66756 -87.76791 3574 ft 211 kts 60°
2026-05-07 05:03 41.67395 -87.75068 3301 ft 203 kts 60°
2026-05-07 05:04 41.68004 -87.73423 3083 ft 198 kts 59°
2026-05-07 05:04 41.68572 -87.71879 2960 ft 169 kts 59°
2026-05-07 05:04 41.69066 -87.70547 2891 ft 158 kts 58°
2026-05-07 05:04 41.69608 -87.69239 2671 ft 160 kts 48°
2026-05-07 05:05 41.70446 -87.68339 2462 ft 152 kts 27°
2026-05-07 05:05 41.71422 -87.67856 2264 ft 150 kts
2026-05-07 05:05 41.72465 -87.67852 2070 ft 151 kts 351°
2026-05-07 05:05 41.73445 -87.68319 1874 ft 150 kts 332°
2026-05-07 05:06 41.74254 -87.69201 1625 ft 151 kts 313°
2026-05-07 05:06 41.74971 -87.70252 1451 ft 155 kts 315°
2026-05-07 05:06 41.75731 -87.71283 1291 ft 155 kts 314°
2026-05-07 05:06 41.76465 -87.72353 1111 ft 156 kts 313°
2026-05-07 05:07 41.77225 -87.73401 829 ft 155 kts 313°
2026-05-07 05:07 41.77948 -87.74412 635 ft 142 kts 313°
2026-05-07 05:07 41.78540 -87.75247 614 ft 97 kts 314°
2026-05-07 05:07 41.78912 -87.75769 620 ft 49 kts 315°
2026-05-07 05:08 41.79028 -87.75931 620 ft 0 kts 312°
2026-05-07 05:08 41.79034 -87.75940 618 ft 7 kts 315°
2026-05-07 05:08 41.79128 -87.75996 612 ft 19 kts
2026-05-07 05:09 41.79211 -87.75898 609 ft 15 kts 85°
2026-05-07 05:09 41.79177 -87.75720 612 ft 22 kts 131°
2026-05-07 05:09 41.79122 -87.75531 611 ft 15 kts 79°
2026-05-07 05:09 41.79172 -87.75468 616 ft 1 kts